STARLINK-33902, 65920

Orbit data source: Space-Track

STARLINK-33902, 65920 is a payload satellite owned by SpaceX/Seattle (US) in LEO that was launched on Wed, 08 Oct 2025 UTC via an FALCON 9 launch vehicle from the Air Force Western Test Range (AFWTR). Payload-class satellites include a variety of spacecraft equipped with specific instruments for various scientific and technological missions. These include communications satellites like Starlink; space stations such as the ISS; scientific satellites like the Hubble; Earth observation satellites from companies like Planet Labs, Umbra, and HawkEye 360; GPS; miniature CubeSats for education and research; and military/defense satellites.

Loading next visibility...
Identifier
65920, 2025-225L
Orbit
LEO
Country
Flag of USUS
Related business
Manufacturer
SpaceX/Seattle
Mission
Operational Commercial Communications
Bus & Motor
STARLINK V2MO, Unknown motor
Mass
575 kg wet, ~530 kg dry
Launch date (UTC)
2025-10-08 (8 months ago)
Launch vehicle
FALCON 9
Launch site
Air Force Western Test Range (AFWTR)
Object type
Payload
Rocket body
Debris
Shape & HBR
Box + 2 Pan, 17.7 m
Radar Cross Section
36.964 m², Large (>1 m²)

Expand to show TLE details & history
Last TLE update: 11 hours ago

TLE from 11 hours ago
0 STARLINK-33902
1 65920U 25225L   26151.29707272  .00027256  00000-0  81494-3 0  9990
2 65920  53.1605 142.1228 0001526 155.6690 204.4385 15.34398055 37054
Epoch: 2026-05-31T07:07Z
TLE epoch observation values (Epoch: 2026-05-31T07:07:47.083Z)
Latitude
-0.00004°
Longitude
146.37582°
Altitude
464.561 km
Speed
7.635 km/s
True Right ascension
09h 28m 29s
True Declination
0° 00' 00"
Sunlit
Object was in daylight at epoch
Visualization orbit readout
Latitude
Unknown
Longitude
Unknown
Altitude
Unknown
Speed
Unknown
Apparent Right ascension
Unknown
Apparent Declination
Unknown
Sunlit
N/A
Visualization observer readout
Local Sidereal Time
03:17:38
Azimuth
Unknown
Elevation
Unknown
Doppler factor
Unknown
Orbital elements
Apogee altitude
464.01 km
Perigee altitude
461.922 km
Semi-major axis
6,841.103 km
Eccentricity
0.00015
Inclination
53.1605°
RAAN
142.1228°
Arg. of periapsis
155.669°
True anomaly
204.43127°
Mean anomaly
204.4385°
Eccentric anomaly
204.43488°
Mean motion
3.83578 °/min
Orbital period
93.85 mins
BSTAR
0.00081494
Loading maneuver chart data...
Computing Atmospheric mass density...
Loading historical data...
Loading historical data...
Loading historical data...
Loading historical data...
Loading historical data...
Loading historical data...
Loading historical data...

Documentation

Showing up to 5 results
|